[[{"header":{"parameterUnit":"m.s-1","parameterCategory":1,"la1":30.2992,"la2":30.254,"lo1":-89.0895,"lo2":-89.0443,"dy":0.0025,"dx":0.0025,"nx":19,"ny":19,"refTime":"2026-03-14T03:00:00:Z","depth":0,"parameterNumber":2,"parameterNumberName":"U-component_of_WINDS"},"data":[0,0,0,-2.6989,-2.6991,-2.7096,-2.7096,-2.7245,-2.7246,0,0,0,0,0,0,0,0,0,0,0,-2.6965,-2.6966,-2.6988,-2.6991,-2.7096,-2.7096,-2.7244,-2.7246,0,0,0,0,0,0,0,0,0,0,0,-2.6965,-2.6966,-2.6968,-2.6992,-2.7096,-2.7096,-2.7244,-2.716,0,0,0,0,0,0,0,0,0,0,-2.7056,-2.7042,-2.6966,-2.6968,-2.6992,-2.7095,-2.7096,-2.7156,-2.7166,-2.7203,0,-2.7238,0,-2.7244,-2.7257,-2.7258,0,0,0,-2.6986,-2.7034,-2.7055,-2.6968,-2.6993,-2.7095,-2.7047,-2.7161,-2.7172,-2.7216,-2.724,-2.7245,-2.7247,-2.7258,-2.7259,-2.7491,-2.7492,0,0,-2.698,-2.6989,-2.7048,-2.7062,-2.7046,-2.7044,-2.705,-2.7167,-2.7194,-2.724,-2.7248,-2.7249,-2.7259,-2.726,-2.7489,-2.7491,0,0,0,-2.6967,-2.6985,-2.7003,-2.7057,-2.7074,-2.7047,-2.7054,-2.7189,-2.7194,-2.725,-2.7251,-2.726,-2.7262,-2.7488,-2.749,-2.7563,0,0,0,-2.6963,-2.6977,-2.7,-2.7007,-2.7072,-2.7133,-2.7074,-2.7186,-2.7199,-2.725,-2.726,-2.7264,-2.7486,-2.7489,-2.7558,-2.7596,0,0,0,-2.6956,-2.6976,-2.6994,-2.7007,-2.7052,-2.7131,-2.7142,-2.7189,-2.72,-2.7258,-2.7264,-2.7485,-2.7489,-2.7553,-2.7588,-2.7659,0,0,0,-2.6951,-2.7058,-2.6995,-2.7116,-2.7051,-2.7175,-2.7141,-2.7233,-2.7291,-2.7261,-2.7487,-2.749,-2.7551,-2.7584,-2.7654,-2.7719,-2.7747,0,0,-2.7091,-2.7075,-2.7146,-2.7092,-2.7229,-2.7158,-2.7306,-2.7352,-2.7351,-2.7444,-2.745,-2.7559,-2.7588,-2.7658,-2.7902,-2.7924,0,0,0,-2.7193,-2.7244,-2.7278,-2.7333,-2.7369,-2.7404,-2.7426,-2.7443,-2.7522,-2.74,-2.7604,-2.7621,-2.7661,-2.7692,-2.7711,-2.7745,-2.7504,-2.7504,-2.7504,-2.7404,-2.7395,-2.7511,-2.7515,-2.7568,-2.759,-2.7633,-2.7659,-2.7636,-2.7685,-2.7712,-2.7861,-2.7897,-2.7912,-2.7947,-2.7746,-2.7747,-2.7747,-2.7747,-2.7608,-2.7678,-2.7643,-2.7743,-2.7734,-2.7818,-2.7843,-2.7824,-2.7901,-2.784,-2.7875,-2.7808,-2.7936,-2.7967,-2.7753,-2.7752,-2.7751,-2.775,-2.775,-2.7745,-2.7777,-2.7795,-2.7872,-2.7934,-2.7934,-2.801,-2.7999,-2.799,-2.8025,-2.8053,-2.8052,-2.8049,-2.8039,-2.804,-2.804,-2.8041,-2.8041,-2.8041,-2.788,-2.7897,-2.7961,-2.8009,-2.8042,-2.8085,-2.8107,-2.8141,-2.8175,-2.8161,-2.8161,-2.8133,-2.795,-2.7904,-2.8049,-2.8048,-2.8047,-2.8046,-2.8046,-2.8089,-2.804,-2.8139,-2.8172,-2.8226,-2.8288,-2.8273,-2.8341,-2.8367,-2.8405,-2.837,-2.8236,-2.822,-2.8205,-2.8167,-2.8371,-2.8371,-2.8371,-2.8371,-2.8204,-2.8194,-2.8292,-2.8346,-2.8398,-2.8394,-2.8507,-2.8526,-2.8539,-2.8554,-2.8523,-2.8472,-2.8457,-2.845,-2.8429,-2.8393,-2.8651,-2.8651,-2.8651,-2.8332,-2.8327,-2.8424,-2.8433,-2.8475,-2.8512,-2.8618,-2.8683,-2.8686,-2.8663,-2.8566,-2.8555,-2.8471,-2.8445,-2.8418,-2.8387,-2.8321,0,0]},{"header":{"parameterUnit":"m.s-1","parameterCategory":1,"la1":30.2992,"la2":30.254,"lo1":-89.0895,"lo2":-89.0443,"dy":0.0025,"dx":0.0025,"nx":19,"ny":19,"refTime":"2026-03-14T03:00:00:Z","depth":0,"parameterNumber":3,"parameterNumberName":"V-component_of_WINDS"},"data":[0,0,0,3.5323,3.5325,3.5405,3.5406,3.5518,3.5519,0,0,0,0,0,0,0,0,0,0,0,3.5306,3.5307,3.5322,3.5325,3.5405,3.5406,3.5517,3.5519,0,0,0,0,0,0,0,0,0,0,0,3.5306,3.5307,3.5309,3.5325,3.5405,3.5406,3.5517,3.5452,0,0,0,0,0,0,0,0,0,0,3.5372,3.5366,3.5307,3.5309,3.5326,3.5405,3.5406,3.5449,3.5457,3.5485,0,3.5515,0,3.5519,3.5527,3.5527,0,0,0,3.5318,3.536,3.5375,3.5309,3.5326,3.5405,3.5367,3.5453,3.5461,3.5495,3.5517,3.5521,3.5521,3.5528,3.5528,3.572,3.5721,0,0,3.5314,3.5325,3.5369,3.538,3.5371,3.5365,3.537,3.5458,3.5481,3.5517,3.5523,3.5523,3.5529,3.5529,3.5719,3.572,0,0,0,3.5305,3.5322,3.5334,3.5376,3.539,3.5367,3.5373,3.5477,3.5481,3.5524,3.5524,3.5529,3.5531,3.5717,3.5719,3.5788,0,0,0,3.5302,3.5317,3.5333,3.534,3.5389,3.5435,3.5391,3.5475,3.5484,3.5523,3.5529,3.5532,3.5716,3.5718,3.5783,3.5818,0,0,0,3.5298,3.5316,3.5331,3.534,3.5376,3.5434,3.5442,3.5476,3.5485,3.5527,3.5532,3.5715,3.5718,3.5779,3.5811,3.587,0,0,0,3.5297,3.5391,3.5332,3.5437,3.5375,3.5477,3.5441,3.5516,3.5561,3.553,3.5716,3.5719,3.5778,3.5807,3.5866,3.5921,3.5945,0,0,3.5421,3.5406,3.5467,3.5417,3.5531,3.5463,3.5587,3.5618,3.5611,3.5683,3.5688,3.5785,3.5811,3.5869,3.6082,3.6101,0,0,0,3.551,3.5553,3.5582,3.5626,3.5652,3.5676,3.5687,3.5698,3.5759,3.5652,3.5822,3.5838,3.5871,3.5897,3.5914,3.5941,3.5732,3.5732,3.5731,3.5701,3.5688,3.5787,3.5784,3.5827,3.5836,3.5869,3.5885,3.586,3.59,3.5921,3.6052,3.6082,3.6095,3.6124,3.595,3.5951,3.5951,3.5951,3.588,3.5939,3.5903,3.5986,3.5971,3.6039,3.6052,3.6031,3.6091,3.6035,3.6064,3.6003,3.6117,3.6141,3.5956,3.5955,3.5955,3.5954,3.5954,3.6003,3.6028,3.6041,3.6102,3.615,3.6143,3.6202,3.6187,3.6172,3.6201,3.622,3.6219,3.6214,3.6212,3.6212,3.6213,3.6213,3.6213,3.6214,3.6124,3.6136,3.6189,3.6224,3.6249,3.628,3.6289,3.6313,3.6335,3.6319,3.6319,3.6288,3.6131,3.6091,3.6221,3.6219,3.6219,3.6218,3.6217,3.6308,3.6264,3.6345,3.6371,3.6409,3.6456,3.6436,3.6485,3.6502,3.6532,3.6495,3.6382,3.6365,3.6351,3.6318,3.6499,3.6499,3.6499,3.6499,3.641,3.64,3.6479,3.652,3.6558,3.6548,3.6637,3.6645,3.6645,3.6655,3.6626,3.6581,3.6568,3.6559,3.6541,3.6509,3.6735,3.6735,3.6735,3.6522,3.6515,3.6595,3.6596,3.6625,3.6649,3.6732,3.6778,3.677,3.6744,3.6661,3.6651,3.6578,3.6555,3.6527,3.6499,3.6441,0,0]}]]